[[{"header":{"parameterUnit":"m.s-1","parameterCategory":2,"la1":30.2991,"la2":30.254,"lo1":-89.0895,"lo2":-89.0444,"dy":0.0017,"dx":0.0017,"nx":28,"ny":28,"refTime":"2024-05-01T09:00:00:Z","depth":"0","parameterNumber":2,"parameterNumberName":"U-component_of_CURRENTS"},"data":[0,0,0,0,0,0,0,0,0,0,0,0,0,0,0,0,0,0,0,0,0,0,0,0,0,0,0,0,0,0,0,0,0,0,0,0,0,0,0,0,0,0,0,0,0,0,0,0,0,0,0,0,0,0,0,0,0,0,-0.2792,-0.2791,0,-0.2747,-0.2746,-0.2745,-0.2729,-0.2729,-0.273,-0.273,-0.2671,-0.2669,-0.2667,0,0,0,0,0,0,0,0,0,0,0,0,0,-0.274,-0.2742,-0.2792,-0.2791,-0.2791,-0.2747,-0.2746,-0.2745,-0.2729,-0.2729,-0.273,-0.273,-0.2671,-0.2669,-0.2667,0,0,0,0,0,0,0,0,0,0,0,0,0,-0.2734,-0.2742,-0.2792,-0.2779,-0.2777,-0.2747,-0.2746,-0.2745,-0.2729,-0.2729,-0.273,-0.273,-0.2672,-0.2669,-0.2666,-0.264,0,0,-0.2658,-0.2657,0,0,0,0,0,0,0,0,-0.2735,-0.2736,-0.2781,-0.278,-0.2778,-0.2745,-0.2706,-0.271,-0.2729,-0.2746,-0.273,-0.273,-0.2695,-0.269,-0.2679,-0.2638,-0.2635,-0.2658,-0.2656,-0.2655,-0.2654,0,0,0,0,0,0,0,-0.2736,-0.2737,-0.2772,-0.2781,-0.2779,-0.2733,-0.2733,-0.2706,-0.2717,-0.2744,-0.2743,-0.2741,-0.2694,-0.2681,-0.2677,-0.2634,-0.2658,-0.2655,-0.2654,-0.2652,-0.2518,-0.2516,0,0,0,0,0,0,-0.2751,-0.2739,-0.2774,-0.2771,-0.2759,-0.2734,-0.2734,-0.2754,-0.2717,-0.2713,-0.274,-0.274,-0.2686,-0.268,-0.2675,-0.2592,-0.2655,-0.2652,-0.2651,-0.252,-0.2518,-0.2516,0,0,0,0,0,0,-0.275,-0.2755,-0.2776,-0.2753,-0.2753,-0.2736,-0.2757,-0.2753,-0.2724,-0.2715,-0.271,-0.2714,-0.2686,-0.2679,-0.2628,-0.2591,-0.2651,-0.2648,-0.2522,-0.2519,-0.2517,-0.2457,0,0,0,0,0,0,-0.2749,-0.2756,-0.2756,-0.2756,-0.2755,-0.2722,-0.2756,-0.2752,-0.2724,-0.2722,-0.2691,-0.2687,-0.2686,-0.2632,-0.2625,-0.2589,-0.2646,-0.2525,-0.2521,-0.2517,-0.2462,-0.2453,-0.2445,0,0,0,0,0,-0.2748,-0.2728,-0.2757,-0.2759,-0.2763,-0.272,-0.2713,-0.2701,-0.2722,-0.2682,-0.2676,-0.2687,-0.2605,-0.2627,-0.262,-0.2582,-0.2526,-0.2522,-0.2518,-0.2466,-0.2455,-0.2446,0,0,0,0,0,0,-0.2692,-0.2725,-0.2756,-0.2747,-0.2728,-0.2717,-0.2679,-0.2688,-0.2652,-0.266,-0.2659,-0.2652,-0.2596,-0.2593,-0.2619,-0.2533,-0.2568,-0.2562,-0.2531,-0.2521,-0.2512,-0.2496,-0.2644,0,0,0,0,0,-0.269,-0.2699,-0.2707,-0.2701,-0.2688,-0.2688,-0.2667,-0.2669,-0.2649,-0.2634,-0.2626,-0.2609,-0.2574,-0.2551,-0.2527,-0.2473,-0.2451,-0.2445,-0.2436,-0.243,-0.241,-0.2335,-0.2318,-0.2501,-0.2502,-0.2502,0,0,-0.2671,-0.269,-0.2696,-0.2691,-0.2681,-0.264,-0.2674,-0.2638,-0.2606,-0.2633,-0.2583,-0.258,-0.2554,-0.2499,-0.2473,-0.2489,-0.2368,-0.2424,-0.2418,-0.2403,-0.2329,-0.2311,-0.2295,-0.2499,-0.2499,-0.25,0,0,-0.2609,-0.265,-0.2619,-0.2603,-0.2588,-0.2591,-0.2577,-0.2566,-0.2554,-0.2515,-0.2527,-0.2496,-0.2455,-0.2426,-0.2405,-0.2332,-0.233,-0.2331,-0.227,-0.2197,-0.2181,-0.2167,-0.2127,-0.2109,-0.2323,-0.2323,-0.2323,0,-0.2578,-0.2563,-0.2593,-0.2547,-0.2528,-0.2565,-0.2508,-0.2495,-0.2475,-0.2456,-0.2487,-0.2422,-0.2414,-0.2327,-0.2311,-0.2311,-0.2282,-0.2313,-0.2185,-0.2171,-0.2157,-0.2119,-0.2101,-0.232,-0.232,-0.232,-0.2321,0,-0.2484,-0.2471,-0.2441,-0.2423,-0.2398,-0.2359,-0.236,-0.234,-0.236,-0.2357,-0.2298,-0.2294,-0.2257,-0.2249,-0.2258,-0.2157,-0.2172,-0.2188,-0.2212,-0.2135,-0.2101,-0.2082,-0.2315,-0.2316,-0.2317,-0.2318,0,0,-0.2408,-0.2385,-0.2374,-0.2353,-0.2338,-0.2308,-0.2262,-0.2219,-0.2188,-0.2186,-0.2127,-0.2092,-0.2122,-0.21,-0.2112,-0.2052,-0.195,-0.2078,-0.2076,-0.204,-0.1801,-0.1744,-0.1719,-0.1941,-0.1937,-0.1934,-0.182,0,-0.2319,-0.2239,-0.2248,-0.217,-0.2123,-0.2151,-0.2104,-0.2084,-0.2083,-0.204,-0.2036,-0.1996,-0.2054,-0.2045,-0.1993,-0.1967,-0.1897,-0.198,-0.1878,-0.1876,-0.1834,-0.1693,-0.1618,-0.1503,-0.1802,-0.1799,-0.1797,0,-0.22,-0.2176,-0.2089,-0.2062,-0.2042,-0.2005,-0.1962,-0.1933,-0.1894,-0.1892,-0.1867,-0.1881,-0.1821,-0.1878,-0.1779,-0.1832,-0.1801,-0.1779,-0.1774,-0.1723,-0.1782,-0.1624,-0.1459,-0.1467,-0.1769,-0.1772,-0.1774,0,-0.2113,-0.2057,-0.1999,-0.1985,-0.1953,-0.1918,-0.1912,-0.1879,-0.1845,-0.1806,-0.1778,-0.1735,-0.1719,-0.1662,-0.1667,-0.1705,-0.1548,-0.1598,-0.1508,-0.1507,-0.142,-0.1416,-0.1246,-0.1475,-0.1476,-0.1476,-0.1476,0,-0.2001,-0.1946,-0.1959,-0.1917,-0.1852,-0.1862,-0.1787,-0.1778,-0.174,-0.1687,-0.1711,-0.1658,-0.166,-0.1603,-0.1594,-0.1493,-0.1492,-0.1449,-0.1442,-0.14,-0.1395,-0.1385,-0.1436,-0.1472,-0.1473,-0.1473,-0.1474,0,-0.1883,-0.1889,-0.182,-0.1803,-0.1798,-0.1754,-0.1723,-0.1673,-0.1666,-0.1595,-0.158,-0.157,-0.1501,-0.1488,-0.1402,-0.1395,-0.1278,-0.1272,-0.1241,-0.123,-0.1146,-0.1198,-0.103,-0.1002,-0.1127,-0.1124,-0.1122,0,-0.1808,-0.1766,-0.1747,-0.1718,-0.1702,-0.166,-0.1625,-0.1623,-0.1585,-0.1539,-0.1494,-0.1427,-0.1359,-0.1228,-0.1176,-0.1089,-0.1153,-0.0997,-0.1035,-0.1072,-0.1127,-0.1188,-0.1183,-0.0914,-0.091,-0.0907,-0.0905,0,-0.1674,-0.168,-0.1645,-0.1602,-0.156,-0.1517,-0.1485,-0.144,-0.144,-0.1383,-0.131,-0.1247,-0.1137,-0.1017,-0.0932,-0.0888,-0.0974,-0.093,-0.0951,-0.09,-0.0969,-0.0964,-0.1105,-0.0878,-0.0881,-0.0883,-0.0884,-0.0885,-0.1592,-0.1549,-0.1526,-0.1468,-0.143,-0.1372,-0.1304,-0.1283,-0.1206,-0.1113,-0.1135,-0.1011,-0.0941,-0.0788,-0.074,-0.0658,-0.0739,-0.066,-0.071,-0.0761,-0.0739,-0.0827,-0.0609,-0.061,-0.0611,-0.0612,-0.0613,0,-0.1489,-0.145,-0.1398,-0.1323,-0.1245,-0.1268,-0.12,-0.1122,-0.1013,-0.095,-0.0868,-0.0747,-0.0637,-0.0594,-0.051,-0.0473,-0.049,-0.0485,-0.0559,-0.0556,-0.0591,-0.0588,-0.0375,-0.0375,-0.0375,-0.0375,-0.0375,-0.0375,-0.1436,-0.1345,-0.1316,-0.1157,-0.1112,-0.098,-0.0926,-0.0843,-0.0773,-0.061,-0.052,-0.0467,-0.0483,-0.0511,-0.0462,-0.0429,-0.0471,-0.0434,-0.0492,-0.0548,-0.0569,-0.059,-0.0595,-0.0387,-0.0387,-0.0418,-0.0419,-0.0419]},{"header":{"parameterUnit":"m.s-1","parameterCategory":2,"la1":30.2991,"la2":30.254,"lo1":-89.0895,"lo2":-89.0444,"dy":0.0017,"dx":0.0017,"nx":28,"ny":28,"refTime":"2024-05-01T09:00:00:Z","depth":"0","parameterNumber":3,"parameterNumberName":"V-component_of_CURRENTS"},"data":[0,0,0,0,0,0,0,0,0,0,0,0,0,0,0,0,0,0,0,0,0,0,0,0,0,0,0,0,0,0,0,0,0,0,0,0,0,0,0,0,0,0,0,0,0,0,0,0,0,0,0,0,0,0,0,0,0,0,0.0226,0.0227,0,0.0377,0.0379,0.038,0.0484,0.0485,0.0486,0.0487,0.0693,0.0698,0.0703,0,0,0,0,0,0,0,0,0,0,0,0,0,-0.0057,-0.0052,0.0226,0.0228,0.023,0.0377,0.0379,0.0381,0.0484,0.0485,0.0486,0.0487,0.0692,0.0697,0.0703,0,0,0,0,0,0,0,0,0,0,0,0,0,0.0076,-0.005,0.0225,0.03,0.0308,0.0376,0.0379,0.0381,0.0484,0.0485,0.0486,0.0488,0.069,0.0697,0.0704,0.0721,0,0,0.0725,0.0728,0,0,0,0,0,0,0,0,0.0069,0.0086,0.0287,0.0295,0.0304,0.0414,0.0355,0.0498,0.0483,0.0416,0.0487,0.0488,0.0605,0.0619,0.0642,0.0731,0.0739,0.0726,0.073,0.0733,0.0735,0,0,0,0,0,0,0,0.0059,0.008,0.0284,0.0289,0.0299,0.0297,0.0318,0.0382,0.0501,0.0422,0.043,0.0448,0.061,0.0635,0.0648,0.0742,0.0726,0.0732,0.0736,0.0739,0.0814,0.0812,0,0,0,0,0,0,0.0047,0.0072,0.028,0.0289,0.0188,0.0302,0.0325,0.0376,0.05,0.052,0.0447,0.0453,0.0622,0.064,0.0656,0.0668,0.0733,0.074,0.0744,0.0816,0.0814,0.0811,0,0,0,0,0,0,0.0041,0.0065,0.0274,0.0182,0.0209,0.0306,0.0362,0.0379,0.0401,0.0518,0.0539,0.0452,0.0624,0.0646,0.0693,0.0678,0.0743,0.0749,0.0819,0.0816,0.0813,0.0703,0,0,0,0,0,0,0.0033,0.0063,0.0079,0.0183,0.0214,0.0291,0.0362,0.0381,0.0411,0.042,0.053,0.0551,0.0627,0.0681,0.0699,0.0689,0.0755,0.0822,0.0818,0.0814,0.0709,0.0696,0.0685,0,0,0,0,0,0.0023,0.0035,0.008,0.0103,0.024,0.029,0.0304,0.0375,0.041,0.0403,0.0477,0.0547,0.0667,0.0685,0.0707,0.0698,0.0824,0.0819,0.0814,0.0715,0.0699,0.0685,0,0,0,0,0,0,-0.0083,0.0051,0.0101,0.0155,0.0209,0.0308,0.0311,0.0359,0.0412,0.0423,0.0531,0.0555,0.0586,0.0645,0.0662,0.07,0.0752,0.0752,0.0669,0.0655,0.0643,0.0639,0.0761,0,0,0,0,0,-0.0096,-0.0043,0.0062,0.0101,0.0125,0.0213,0.0239,0.0288,0.0356,0.0381,0.046,0.053,0.0581,0.062,0.0673,0.0704,0.0744,0.0704,0.0692,0.0681,0.0688,0.0702,0.0692,0.0795,0.0795,0.0795,0,0,-0.0121,-0.0047,-0.0013,0.0081,0.0134,0.0163,0.0231,0.0262,0.0288,0.0395,0.044,0.0492,0.0575,0.0605,0.0625,0.0658,0.067,0.0675,0.0666,0.0679,0.0695,0.0686,0.0677,0.0792,0.0792,0.0793,0,0,-0.0159,-0.0085,-0.0059,-0.002,0.005,0.0104,0.0106,0.0194,0.0229,0.0274,0.0347,0.0384,0.0477,0.053,0.057,0.0519,0.0598,0.0528,0.0482,0.0494,0.0486,0.048,0.0512,0.0509,0.0531,0.053,0.053,0,-0.0201,-0.0135,-0.0057,-0.0036,-0.0004,0.0073,0.0088,0.0128,0.0217,0.0244,0.027,0.0379,0.0444,0.0487,0.0468,0.0496,0.0519,0.0536,0.048,0.0474,0.047,0.0504,0.0503,0.0525,0.0525,0.0526,0.0526,0,-0.0202,-0.0172,-0.0168,-0.0093,-0.0063,-0.0047,0.0029,0.005,0.0102,0.0159,0.02,0.0273,0.0345,0.0353,0.0407,0.0403,0.0434,0.0456,0.0521,0.0453,0.0493,0.0494,0.0516,0.0518,0.052,0.0522,0,0,-0.0234,-0.0176,-0.0175,-0.0157,-0.009,-0.0059,-0.0039,0.0017,0.0038,0.0096,0.0127,0.0191,0.0231,0.0275,0.0328,0.034,0.0324,0.0379,0.0382,0.0418,0.036,0.0423,0.0431,0.0331,0.0331,0.033,0.0399,0,-0.026,-0.024,-0.0198,-0.0188,-0.0171,-0.0111,-0.0093,-0.0039,0.001,0.0048,0.011,0.0155,0.0202,0.0227,0.0242,0.0306,0.0322,0.0305,0.0415,0.0419,0.0489,0.0432,0.0445,0.051,0.04,0.0401,0.0401,0,-0.0271,-0.0252,-0.0246,-0.0217,-0.0203,-0.019,-0.0137,-0.0111,-0.0052,-0.0018,0.0027,0.0085,0.0126,0.016,0.0237,0.0221,0.0281,0.0325,0.0329,0.0432,0.0483,0.056,0.0517,0.059,0.0403,0.0403,0.0403,0,-0.0307,-0.0291,-0.0285,-0.0271,-0.0224,-0.0215,-0.0188,-0.0131,-0.0108,-0.0061,-0.0043,0.002,0.0065,0.0117,0.0237,0.0224,0.0324,0.0322,0.0438,0.0444,0.0502,0.0514,0.0553,0.0365,0.0365,0.0365,0.0365,0,-0.0338,-0.0338,-0.0306,-0.0297,-0.0293,-0.0248,-0.0237,-0.0205,-0.0167,-0.0131,-0.0081,-0.003,0.0053,0.0139,0.0216,0.0347,0.0315,0.0428,0.046,0.0463,0.0471,0.0578,0.0607,0.0367,0.0367,0.0366,0.0366,0,-0.037,-0.0356,-0.035,-0.0316,-0.031,-0.03,-0.0268,-0.0258,-0.0226,-0.0184,-0.0172,-0.0069,0.0055,0.0158,0.028,0.0344,0.0504,0.0506,0.0519,0.0552,0.0697,0.0719,0.0811,0.0885,0.0608,0.061,0.0611,0,-0.0376,-0.0378,-0.036,-0.036,-0.0348,-0.0333,-0.0325,-0.029,-0.0271,-0.018,-0.0157,-0.0031,0.0104,0.0301,0.0427,0.0567,0.0623,0.0654,0.0626,0.0708,0.0755,0.0761,0.0817,0.0657,0.0659,0.066,0.0661,0,-0.0377,-0.0378,-0.0367,-0.0376,-0.0374,-0.0369,-0.035,-0.0343,-0.0281,-0.0223,-0.0086,0.0028,0.0237,0.0427,0.0597,0.0671,0.0708,0.069,0.0759,0.0786,0.0809,0.0896,0.0624,0.0675,0.0673,0.0672,0.0672,0.0671,-0.0363,-0.037,-0.0365,-0.0373,-0.0384,-0.0383,-0.0364,-0.0326,-0.0262,-0.0141,-0.0023,0.0167,0.0404,0.0657,0.0746,0.0889,0.0862,0.0906,0.0924,0.0921,0.0994,0.0768,0.0866,0.0866,0.0865,0.0865,0.0865,0,-0.0308,-0.0333,-0.0357,-0.036,-0.0374,-0.038,-0.0359,-0.0317,-0.0214,-0.0091,0.0075,0.038,0.062,0.0804,0.1012,0.1099,0.1112,0.1133,0.1124,0.1171,0.0955,0.0959,0.11,0.11,0.11,0.11,0.11,0.11,-0.0269,-0.0283,-0.0314,-0.0334,-0.0348,-0.0329,-0.0309,-0.0237,-0.0152,0.007,0.0249,0.0405,0.0683,0.1025,0.1249,0.1273,0.137,0.1344,0.1422,0.1241,0.122,0.12,0.121,0.1402,0.1402,0.1628,0.163,0.1631]}],[{"header":{"parameterUnit":"m.s-1","parameterCategory":2,"la1":30.2991,"la2":30.254,"lo1":-89.0895,"lo2":-89.0444,"dy":0.0017,"dx":0.0017,"nx":28,"ny":28,"refTime":"2024-05-01T09:00:00:Z","depth":"2","parameterNumber":2,"parameterNumberName":"U-component_of_CURRENTS"},"data":[0,0,0,0,0,0,0,0,0,0,0,0,0,0,0,0,0,0,0,0,0,0,0,0,0,0,0,0,0,0,0,0,0,0,0,0,0,0,0,0,0,0,0,0,0,0,0,0,0,0,0,0,0,0,0,0,0,0,-0.1907,-0.1906,0,-0.1847,-0.1846,-0.1845,-0.1866,-0.1867,-0.1869,-0.187,-0.1886,-0.1885,-0.1884,0,0,0,0,0,0,0,0,0,0,0,0,0,-0.1934,-0.1934,-0.1907,-0.1906,-0.1906,-0.1847,-0.1846,-0.1845,-0.1865,-0.1867,-0.1869,-0.1871,-0.1886,-0.1885,-0.1884,0,0,0,0,0,0,0,0,0,0,0,0,0,-0.1901,-0.1934,-0.1907,-0.1911,-0.1911,-0.1847,-0.1846,-0.1845,-0.1865,-0.1867,-0.187,-0.1872,-0.1887,-0.1885,-0.1884,-0.1828,0,0,-0.1879,-0.1878,0,0,0,0,0,0,0,0,-0.1903,-0.19,-0.1911,-0.191,-0.191,-0.1868,-0.1861,-0.1844,-0.1864,-0.188,-0.187,-0.1873,-0.1887,-0.1885,-0.1865,-0.1829,-0.183,-0.1879,-0.1878,-0.1877,-0.1877,0,0,0,0,0,0,0,-0.1905,-0.1902,-0.1881,-0.191,-0.191,-0.1879,-0.1878,-0.1857,-0.1871,-0.1879,-0.1881,-0.1877,-0.1887,-0.1866,-0.1865,-0.183,-0.1879,-0.1878,-0.1877,-0.1876,-0.1811,-0.181,0,0,0,0,0,0,-0.192,-0.1904,-0.1883,-0.1879,-0.1915,-0.1878,-0.1876,-0.1877,-0.1869,-0.187,-0.1875,-0.1878,-0.1867,-0.1867,-0.1866,-0.1859,-0.1877,-0.1876,-0.1875,-0.1811,-0.181,-0.1809,0,0,0,0,0,0,-0.1921,-0.1919,-0.1885,-0.1892,-0.1886,-0.1876,-0.1876,-0.1875,-0.1868,-0.1866,-0.1869,-0.1872,-0.1869,-0.1868,-0.1851,-0.1858,-0.1875,-0.1874,-0.1812,-0.1811,-0.181,-0.1807,0,0,0,0,0,0,-0.1922,-0.192,-0.19,-0.1893,-0.1886,-0.1852,-0.1874,-0.1872,-0.1862,-0.1866,-0.1864,-0.1867,-0.1871,-0.1853,-0.185,-0.1856,-0.1873,-0.1813,-0.1812,-0.181,-0.1808,-0.1806,-0.1804,0,0,0,0,0,-0.1924,-0.1886,-0.19,-0.1896,-0.1869,-0.1852,-0.1844,-0.1843,-0.186,-0.1847,-0.1847,-0.1868,-0.1842,-0.185,-0.1846,-0.1853,-0.1814,-0.1812,-0.181,-0.1809,-0.1807,-0.1804,0,0,0,0,0,0,-0.1855,-0.1885,-0.19,-0.1865,-0.1866,-0.1856,-0.1841,-0.1841,-0.1826,-0.184,-0.1843,-0.1844,-0.1835,-0.1833,-0.1843,-0.1828,-0.1836,-0.1833,-0.1837,-0.1834,-0.1832,-0.1814,-0.1871,0,0,0,0,0,-0.184,-0.188,-0.1857,-0.1859,-0.1843,-0.1845,-0.1831,-0.1837,-0.1832,-0.1828,-0.1831,-0.183,-0.1817,-0.1819,-0.1806,-0.1788,-0.1762,-0.1793,-0.1791,-0.1789,-0.177,-0.1715,-0.1706,-0.1803,-0.1803,-0.1803,0,0,-0.1819,-0.1855,-0.1865,-0.1856,-0.1862,-0.1829,-0.1843,-0.1838,-0.1819,-0.1831,-0.1815,-0.1818,-0.1807,-0.1793,-0.179,-0.1799,-0.1751,-0.1786,-0.1785,-0.1767,-0.1712,-0.1703,-0.1694,-0.1802,-0.1802,-0.1802,0,0,-0.1805,-0.1825,-0.1824,-0.182,-0.183,-0.1834,-0.1833,-0.1818,-0.1812,-0.1789,-0.1798,-0.1793,-0.1782,-0.177,-0.1763,-0.1733,-0.1736,-0.1752,-0.1733,-0.168,-0.1672,-0.1664,-0.1636,-0.1625,-0.1758,-0.1758,-0.1758,0,-0.1775,-0.1768,-0.1815,-0.1797,-0.1792,-0.1836,-0.1792,-0.1785,-0.1776,-0.1761,-0.179,-0.1754,-0.1762,-0.172,-0.1728,-0.1728,-0.1709,-0.1749,-0.1677,-0.1668,-0.166,-0.1633,-0.1621,-0.1757,-0.1757,-0.1757,-0.1757,0,-0.1712,-0.172,-0.1724,-0.1746,-0.1741,-0.1731,-0.1725,-0.172,-0.1742,-0.1737,-0.1708,-0.1706,-0.1685,-0.17,-0.1711,-0.1665,-0.1675,-0.1677,-0.1685,-0.165,-0.1624,-0.1612,-0.1757,-0.1757,-0.1757,-0.1757,0,0,-0.1613,-0.1668,-0.166,-0.1682,-0.1709,-0.1704,-0.1688,-0.1662,-0.1648,-0.1653,-0.1613,-0.1611,-0.163,-0.1619,-0.1634,-0.1607,-0.1558,-0.1631,-0.1628,-0.1605,-0.1459,-0.1404,-0.1386,-0.1554,-0.1551,-0.1549,-0.1471,0,-0.1545,-0.1531,-0.1557,-0.1558,-0.1552,-0.1591,-0.1575,-0.1578,-0.1594,-0.1574,-0.157,-0.1551,-0.1592,-0.1594,-0.1569,-0.1563,-0.1523,-0.1579,-0.1493,-0.149,-0.1447,-0.1368,-0.1274,-0.119,-0.1459,-0.1457,-0.1456,0,-0.1449,-0.1465,-0.1431,-0.1507,-0.1491,-0.1487,-0.1496,-0.1487,-0.1481,-0.1481,-0.147,-0.1483,-0.1456,-0.1491,-0.1434,-0.1475,-0.1458,-0.1449,-0.1446,-0.1379,-0.1411,-0.1264,-0.1158,-0.1435,-0.1437,-0.1438,-0.144,0,-0.1392,-0.1396,-0.1391,-0.1397,-0.1436,-0.1421,-0.1447,-0.1456,-0.144,-0.1428,-0.1419,-0.1395,-0.1384,-0.135,-0.1364,-0.1394,-0.1296,-0.1327,-0.1247,-0.1245,-0.1135,-0.1127,-0.124,-0.124,-0.124,-0.124,-0.124,0,-0.1333,-0.1317,-0.1364,-0.1351,-0.1326,-0.1385,-0.1361,-0.137,-0.1369,-0.1346,-0.1376,-0.1338,-0.1349,-0.1316,-0.1317,-0.1244,-0.1249,-0.1209,-0.1199,-0.1135,-0.1127,-0.1318,-0.1328,-0.1237,-0.1238,-0.1238,-0.1239,0,-0.126,-0.1291,-0.1287,-0.1307,-0.1314,-0.1295,-0.132,-0.13,-0.1318,-0.1283,-0.1275,-0.1281,-0.1238,-0.1236,-0.1186,-0.1173,-0.1115,-0.1082,-0.1021,-0.1004,-0.1116,-0.1127,-0.0969,-0.0966,-0.0963,-0.0961,-0.0959,0,-0.1217,-0.1216,-0.1247,-0.1234,-0.123,-0.1226,-0.1222,-0.1256,-0.1239,-0.1239,-0.1203,-0.1175,-0.1129,-0.1047,-0.0997,-0.0934,-0.1018,-0.0827,-0.0845,-0.107,-0.1077,-0.1093,-0.1107,-0.0715,-0.0711,-0.0708,-0.0706,0,-0.1114,-0.1139,-0.1124,-0.1134,-0.1125,-0.1106,-0.1114,-0.1088,-0.1118,-0.1092,-0.1053,-0.1024,-0.0955,-0.0844,-0.0778,-0.0744,-0.0834,-0.0762,-0.0969,-0.0803,-0.0824,-0.0835,-0.0858,-0.0679,-0.0682,-0.0684,-0.0685,-0.0686,-0.1019,-0.0984,-0.1013,-0.1,-0.1009,-0.0981,-0.094,-0.094,-0.0895,-0.0838,-0.0881,-0.0796,-0.08,-0.0618,-0.0582,-0.0547,-0.0613,-0.0602,-0.0613,-0.0627,-0.0616,-0.0632,-0.045,-0.0451,-0.0452,-0.0454,-0.0454,0,-0.0886,-0.0878,-0.0881,-0.085,-0.0838,-0.0887,-0.0856,-0.0792,-0.0711,-0.0674,-0.0627,-0.0511,-0.0438,-0.0446,-0.0332,-0.0325,-0.0351,-0.0331,-0.0369,-0.0393,-0.0416,-0.0398,-0.0171,-0.0171,-0.017,-0.017,0,0,-0.0788,-0.0738,-0.0749,-0.0692,-0.0694,-0.0626,-0.0594,-0.0524,-0.0478,-0.0359,-0.0299,-0.0341,-0.0376,-0.0254,-0.0247,-0.0183,-0.029,-0.017,-0.0389,-0.0453,-0.0475,-0.0552,-0.0549,0,0,0,0,0]},{"header":{"parameterUnit":"m.s-1","parameterCategory":2,"la1":30.2991,"la2":30.254,"lo1":-89.0895,"lo2":-89.0444,"dy":0.0017,"dx":0.0017,"nx":28,"ny":28,"refTime":"2024-05-01T09:00:00:Z","depth":"2","parameterNumber":3,"parameterNumberName":"V-component_of_CURRENTS"},"data":[0,0,0,0,0,0,0,0,0,0,0,0,0,0,0,0,0,0,0,0,0,0,0,0,0,0,0,0,0,0,0,0,0,0,0,0,0,0,0,0,0,0,0,0,0,0,0,0,0,0,0,0,0,0,0,0,0,0,-0.0372,-0.0371,0,-0.0282,-0.028,-0.0279,-0.0225,-0.0225,-0.0225,-0.0225,-0.0087,-0.0084,-0.008,0,0,0,0,0,0,0,0,0,0,0,0,0,-0.0479,-0.0478,-0.0372,-0.0371,-0.037,-0.0282,-0.028,-0.0279,-0.0225,-0.0225,-0.0225,-0.0225,-0.0088,-0.0084,-0.008,0,0,0,0,0,0,0,0,0,0,0,0,0,-0.0414,-0.0477,-0.0372,-0.0333,-0.0329,-0.0282,-0.028,-0.0279,-0.0225,-0.0225,-0.0225,-0.0224,-0.009,-0.0085,-0.0079,-0.0051,0,0,-0.0063,-0.0061,0,0,0,0,0,0,0,0,-0.0418,-0.041,-0.034,-0.0336,-0.0331,-0.0265,-0.0268,-0.0201,-0.0225,-0.0263,-0.0225,-0.0224,-0.0143,-0.0134,-0.0116,-0.0045,-0.0039,-0.0063,-0.006,-0.0057,-0.0056,0,0,0,0,0,0,0,-0.0423,-0.0414,-0.0335,-0.0339,-0.0333,-0.0314,-0.0305,-0.0255,-0.0204,-0.026,-0.0256,-0.0248,-0.014,-0.0121,-0.0112,-0.0037,-0.0063,-0.0058,-0.0055,-0.0053,0.0082,0.0082,0,0,0,0,0,0,-0.0437,-0.0418,-0.0338,-0.0332,-0.0376,-0.0313,-0.0302,-0.0286,-0.0205,-0.0194,-0.0248,-0.0246,-0.0131,-0.0119,-0.0107,-0.005,-0.0057,-0.0052,-0.0049,0.0081,0.0082,0.0082,0,0,0,0,0,0,-0.0439,-0.043,-0.0341,-0.0375,-0.0362,-0.0311,-0.0293,-0.0284,-0.0258,-0.0197,-0.0184,-0.0231,-0.013,-0.0115,-0.0062,-0.0045,-0.005,-0.0045,0.0081,0.0081,0.0082,0.0053,0,0,0,0,0,0,-0.0443,-0.0432,-0.0424,-0.0375,-0.0361,-0.0311,-0.0293,-0.0282,-0.0254,-0.025,-0.0178,-0.0166,-0.0129,-0.007,-0.0056,-0.0038,-0.0041,0.008,0.0081,0.0082,0.0053,0.0052,0.0052,0,0,0,0,0,-0.0447,-0.0444,-0.0424,-0.0415,-0.0352,-0.0311,-0.0301,-0.0264,-0.0254,-0.024,-0.0197,-0.0168,-0.0055,-0.0065,-0.0049,-0.0029,0.008,0.0081,0.0082,0.0054,0.0053,0.0052,0,0,0,0,0,0,-0.0489,-0.0437,-0.0414,-0.0395,-0.0353,-0.0302,-0.0285,-0.0264,-0.0218,-0.021,-0.0159,-0.0143,-0.0094,-0.0058,-0.007,0.0011,0.0016,0.002,-0.001,-0.0011,-0.0012,-0.0025,-0.0037,0,0,0,0,0,-0.0494,-0.0473,-0.0422,-0.0404,-0.0382,-0.0332,-0.0311,-0.0284,-0.024,-0.0219,-0.0174,-0.0124,-0.0078,-0.0044,-0.0001,0.005,0.0069,0.0072,0.0071,0.007,0.0069,0.0103,0.0105,0.0085,0.0085,0.0085,0,0,-0.0507,-0.0474,-0.0462,-0.0411,-0.0371,-0.0341,-0.0318,-0.0281,-0.0258,-0.021,-0.0165,-0.0126,-0.0068,-0.0018,0.0009,0.0017,0.0086,0.0071,0.007,0.007,0.0104,0.0106,0.0108,0.0086,0.0086,0.0086,0,0,-0.0517,-0.0486,-0.0467,-0.0433,-0.0378,-0.0347,-0.0338,-0.0282,-0.0257,-0.021,-0.0176,-0.013,-0.0055,-0.0013,0.0018,0.004,0.0073,0.0057,0.0055,0.0088,0.009,0.0091,0.0114,0.0118,0.0065,0.0065,0.0065,0,-0.0529,-0.0499,-0.0457,-0.0428,-0.0403,-0.0351,-0.0327,-0.0294,-0.0232,-0.0209,-0.0199,-0.0101,-0.0053,0.0007,0.0015,0.004,0.0057,0.0054,0.0086,0.0088,0.009,0.0114,0.0118,0.0064,0.0064,0.0064,0.0064,0,-0.0522,-0.0495,-0.048,-0.0425,-0.0396,-0.0365,-0.0315,-0.0287,-0.0254,-0.0217,-0.016,-0.0103,-0.0044,-0.002,0.001,0.0055,0.0061,0.0072,0.0085,0.009,0.0115,0.012,0.0062,0.0063,0.0063,0.0063,0,0,-0.0545,-0.0487,-0.0482,-0.0453,-0.0391,-0.0364,-0.033,-0.0279,-0.0254,-0.0199,-0.0166,-0.0089,-0.0061,-0.0025,0.0015,0.0051,0.0085,0.0069,0.0072,0.0085,0.015,0.0172,0.018,0.01,0.0101,0.0101,0.0159,0,-0.0543,-0.0508,-0.0479,-0.0438,-0.0406,-0.0362,-0.0335,-0.0286,-0.0242,-0.0199,-0.0139,-0.0091,-0.0061,-0.0034,0.0006,0.0063,0.0099,0.0068,0.0149,0.0151,0.0165,0.0188,0.015,0.0199,0.0164,0.0165,0.0166,0,-0.0533,-0.051,-0.0483,-0.0432,-0.0415,-0.0395,-0.0342,-0.0311,-0.0245,-0.0213,-0.0159,-0.0113,-0.0049,-0.0033,0.0063,0.0041,0.0093,0.0135,0.0138,0.0173,0.0184,0.019,0.0211,0.0175,0.0174,0.0174,0.0173,0,-0.0551,-0.0506,-0.0491,-0.0471,-0.0414,-0.0402,-0.0374,-0.0315,-0.0286,-0.0224,-0.0198,-0.0121,-0.0081,-0.0013,0.008,0.0072,0.0181,0.018,0.0247,0.0249,0.0241,0.024,0.0246,0.0246,0.0246,0.0245,0.0245,0,-0.0547,-0.0527,-0.0501,-0.0485,-0.0467,-0.0421,-0.0394,-0.036,-0.0309,-0.0271,-0.021,-0.0167,-0.0073,0.0005,0.0076,0.0184,0.018,0.0252,0.0271,0.023,0.0228,0.0226,0.0223,0.0247,0.0247,0.0247,0.0246,0,-0.0553,-0.0536,-0.0513,-0.0479,-0.047,-0.0457,-0.0417,-0.0394,-0.035,-0.0305,-0.0288,-0.0194,-0.0088,0.001,0.0132,0.0184,0.0279,0.0318,0.0261,0.0273,0.0321,0.0316,0.0388,0.039,0.0391,0.0392,0.0393,0,-0.0551,-0.0541,-0.0524,-0.0518,-0.0504,-0.0483,-0.0466,-0.0421,-0.0396,-0.0314,-0.0293,-0.0184,-0.0091,0.0089,0.0201,0.0327,0.0333,0.0359,0.0342,0.0328,0.0338,0.0331,0.0325,0.0315,0.0315,0.0315,0.0315,0,-0.0547,-0.0551,-0.0541,-0.0539,-0.0529,-0.0508,-0.0483,-0.0474,-0.0415,-0.0373,-0.0291,-0.0212,-0.0033,0.0105,0.0268,0.0331,0.0332,0.0366,0.0377,0.0287,0.0264,0.0272,0.0267,0.0316,0.0316,0.0315,0.0315,0.0315,-0.0559,-0.0564,-0.0564,-0.056,-0.0544,-0.0527,-0.0508,-0.0478,-0.0438,-0.0358,-0.0305,-0.0167,-0.0047,0.02,0.0298,0.0387,0.0384,0.0387,0.0384,0.0382,0.0365,0.0346,0.041,0.041,0.0411,0.0411,0.0411,0,-0.0584,-0.0588,-0.0581,-0.0573,-0.0555,-0.0542,-0.0508,-0.0475,-0.0426,-0.034,-0.0263,-0.0109,0.0038,0.0191,0.033,0.04,0.0377,0.0408,0.0355,0.0353,0.0351,0.0332,0.0369,0.0369,0.0369,0.037,0,0,-0.0607,-0.0608,-0.0604,-0.0585,-0.0571,-0.0545,-0.0522,-0.0455,-0.0377,-0.0271,-0.0166,-0.0089,0.0082,0.0168,0.0243,0.0323,0.032,0.0324,0.0344,0.0268,0.0266,0.0319,0.0285,0,0,0,0,0]}],[{"header":{"parameterUnit":"m.s-1","parameterCategory":2,"la1":30.2991,"la2":30.254,"lo1":-89.0895,"lo2":-89.0444,"dy":0.0017,"dx":0.0017,"nx":28,"ny":28,"refTime":"2024-05-01T09:00:00:Z","depth":"4","parameterNumber":2,"parameterNumberName":"U-component_of_CURRENTS"},"data":[0,0,0,0,0,0,0,0,0,0,0,0,0,0,0,0,0,0,0,0,0,0,0,0,0,0,0,0,0,0,0,0,0,0,0,0,0,0,0,0,0,0,0,0,0,0,0,0,0,0,0,0,0,0,0,0,0,0,-0.0705,-0.0705,0,-0.0765,-0.0765,-0.0766,-0.0833,-0.0834,-0.0834,-0.0835,-0.0839,-0.0838,-0.0838,0,0,0,0,0,0,0,0,0,0,0,0,0,-0.0698,-0.0697,-0.0705,-0.0705,-0.0706,-0.0764,-0.0765,-0.0766,-0.0833,-0.0834,-0.0835,-0.0836,-0.0839,-0.0838,-0.0838,0,0,0,0,0,0,0,0,0,0,0,0,0,-0.0725,-0.0697,-0.0704,-0.0745,-0.0749,-0.0764,-0.0765,-0.0767,-0.0832,-0.0834,-0.0835,-0.0836,-0.0839,-0.0838,-0.0837,-0.0806,0,0,-0.0834,-0.0834,0,0,0,0,0,0,0,0,-0.0723,-0.0725,-0.0738,-0.0742,-0.0747,-0.0791,-0.0764,-0.0777,-0.0832,-0.0802,-0.0835,-0.0837,-0.0816,-0.0817,-0.0828,-0.0807,-0.0807,-0.0834,-0.0834,-0.0833,-0.0833,0,0,0,0,0,0,0,-0.0721,-0.0723,-0.073,-0.0739,-0.0744,-0.0777,-0.0782,-0.0768,-0.0802,-0.0805,-0.081,-0.0813,-0.0818,-0.0829,-0.0829,-0.0807,-0.0834,-0.0833,-0.0833,-0.0832,-0.0895,-0.0897,0,0,0,0,0,0,-0.0706,-0.0721,-0.0728,-0.0732,-0.0736,-0.0776,-0.0781,-0.0777,-0.0803,-0.0808,-0.0812,-0.0816,-0.083,-0.083,-0.0829,-0.0868,-0.0833,-0.0832,-0.0832,-0.0893,-0.0895,-0.0898,0,0,0,0,0,0,-0.0706,-0.0706,-0.0726,-0.0727,-0.0732,-0.0774,-0.0769,-0.0777,-0.0816,-0.0809,-0.0814,-0.0845,-0.0831,-0.083,-0.0854,-0.0866,-0.0832,-0.0831,-0.089,-0.0894,-0.0897,-0.0898,0,0,0,0,0,0,-0.0705,-0.0705,-0.0715,-0.0725,-0.0731,-0.0752,-0.0768,-0.0778,-0.0814,-0.0821,-0.0838,-0.0838,-0.0832,-0.0855,-0.0853,-0.0864,-0.083,-0.0887,-0.0892,-0.0896,-0.0895,-0.0901,-0.0907,0,0,0,0,0,-0.0704,-0.0702,-0.0715,-0.0717,-0.0737,-0.0752,-0.0759,-0.0794,-0.0815,-0.0834,-0.0857,-0.0839,-0.0881,-0.0856,-0.0852,-0.0863,-0.0885,-0.089,-0.0895,-0.0893,-0.09,-0.0906,0,0,0,0,0,0,-0.0708,-0.0708,-0.0723,-0.0724,-0.0747,-0.0764,-0.0788,-0.0806,-0.084,-0.0856,-0.0852,-0.0854,-0.0889,-0.0882,-0.0854,-0.0903,-0.0886,-0.0891,-0.0886,-0.0892,-0.0898,-0.0882,-0.0829,0,0,0,0,0,-0.071,-0.0699,-0.0722,-0.0719,-0.0742,-0.077,-0.0788,-0.0811,-0.0832,-0.0851,-0.0858,-0.0879,-0.0902,-0.0903,-0.0922,-0.0925,-0.0911,-0.094,-0.0946,-0.095,-0.0941,-0.0943,-0.0946,-0.0915,-0.0915,-0.0915,0,0,-0.0707,-0.0704,-0.0701,-0.0719,-0.0746,-0.0773,-0.0786,-0.0818,-0.0835,-0.0841,-0.0874,-0.0899,-0.0915,-0.0939,-0.0952,-0.0931,-0.0955,-0.0957,-0.0959,-0.0948,-0.0948,-0.0951,-0.0953,-0.0918,-0.0917,-0.0917,0,0,-0.0684,-0.0704,-0.0698,-0.0728,-0.0766,-0.0785,-0.08,-0.0835,-0.0857,-0.0889,-0.0909,-0.0933,-0.0964,-0.0964,-0.0972,-0.1015,-0.0995,-0.1045,-0.1035,-0.1038,-0.1039,-0.104,-0.1022,-0.1021,-0.1032,-0.1032,-0.1032,0,-0.069,-0.0685,-0.0703,-0.0723,-0.075,-0.0794,-0.0819,-0.0843,-0.0876,-0.0886,-0.0909,-0.0964,-0.097,-0.0982,-0.1011,-0.1019,-0.1024,-0.0999,-0.1039,-0.104,-0.1041,-0.1022,-0.1021,-0.1032,-0.1032,-0.1032,-0.1032,0,-0.067,-0.0692,-0.07,-0.0733,-0.0762,-0.0794,-0.0833,-0.0859,-0.0896,-0.0916,-0.0957,-0.0973,-0.0998,-0.1016,-0.1027,-0.1042,-0.1046,-0.1053,-0.1008,-0.1043,-0.1023,-0.1021,-0.1033,-0.1033,-0.1033,-0.1033,0,0,-0.0631,-0.0676,-0.0687,-0.0709,-0.0781,-0.0792,-0.083,-0.0866,-0.0889,-0.0928,-0.095,-0.0988,-0.1005,-0.1016,-0.1027,-0.1027,-0.1034,-0.1049,-0.1049,-0.1005,-0.1039,-0.0944,-0.0933,-0.1059,-0.106,-0.106,-0.1019,0,-0.0627,-0.0644,-0.0676,-0.0716,-0.0744,-0.0801,-0.0826,-0.0862,-0.0907,-0.0939,-0.0956,-0.0994,-0.1002,-0.1024,-0.1025,-0.1049,-0.1034,-0.1044,-0.1034,-0.1033,-0.0922,-0.0929,-0.106,-0.1018,-0.1018,-0.1017,-0.1017,0,-0.0616,-0.0626,-0.0654,-0.0704,-0.0726,-0.0755,-0.0809,-0.0835,-0.089,-0.093,-0.0963,-0.0998,-0.1005,-0.1019,-0.1022,-0.1039,-0.1037,-0.1042,-0.104,-0.0945,-0.0935,-0.0981,-0.1015,-0.1015,-0.1015,-0.1015,-0.1015,0,-0.0565,-0.0619,-0.063,-0.0657,-0.0717,-0.0736,-0.0769,-0.083,-0.0861,-0.092,-0.0962,-0.0984,-0.1,-0.101,-0.1013,-0.1036,-0.1015,-0.1037,-0.0934,-0.0927,-0.1022,-0.1021,-0.1024,-0.1024,-0.1024,-0.1024,-0.1024,0,-0.0547,-0.0565,-0.0609,-0.0619,-0.0642,-0.0696,-0.0736,-0.0776,-0.0847,-0.0875,-0.0944,-0.0956,-0.1008,-0.1008,-0.101,-0.0951,-0.1,-0.092,-0.0907,-0.1027,-0.1027,-0.102,-0.102,-0.1022,-0.1023,-0.1023,-0.1023,0,-0.0493,-0.0529,-0.0545,-0.0597,-0.0618,-0.0629,-0.0717,-0.0746,-0.0818,-0.0858,-0.0878,-0.0942,-0.0926,-0.0948,-0.095,-0.0924,-0.0892,-0.0855,-0.0959,-0.0955,-0.0807,-0.0809,-0.0744,-0.074,-0.0737,-0.0735,-0.0732,0,-0.0461,-0.0462,-0.051,-0.0526,-0.0556,-0.0595,-0.0629,-0.0717,-0.075,-0.0822,-0.0824,-0.0846,-0.0868,-0.0782,-0.0817,-0.0786,-0.0779,-0.0765,-0.0805,-0.0783,-0.0778,-0.0784,-0.079,-0.0727,-0.0726,-0.0726,-0.0725,0,-0.0393,-0.0416,-0.0422,-0.0451,-0.0488,-0.0532,-0.0581,-0.0602,-0.0682,-0.0765,-0.0743,-0.0739,-0.0711,-0.0703,-0.0678,-0.0662,-0.0784,-0.0732,-0.0739,-0.0777,-0.0761,-0.0761,-0.077,-0.0714,-0.0715,-0.0716,-0.0717,0,-0.0332,-0.0325,-0.0333,-0.0359,-0.0406,-0.0433,-0.0485,-0.0513,-0.0553,-0.0644,-0.0617,-0.0636,-0.0677,-0.0634,-0.0608,-0.0585,-0.0589,-0.0591,-0.0607,-0.0619,-0.0599,-0.0563,-0.0427,0,0,0,0,0,-0.0247,-0.023,-0.0246,-0.0262,-0.0315,-0.0342,-0.0431,-0.049,-0.057,-0.053,-0.0577,-0.0542,-0.0514,-0.0524,-0.0475,-0.0553,-0.0592,-0.0495,-0.0602,-0.0652,-0.0665,-0.0655,0,0,0,0,0,0,-0.0178,-0.018,-0.0196,-0.0172,-0.0179,-0.0225,-0.0281,-0.0353,-0.0342,-0.0427,-0.0409,-0.0481,-0.0456,-0.0503,-0.0444,-0.045,-0.0504,-0.0518,-0.0516,-0.0645,-0.0657,-0.0667,-0.0661,0,0,0,0,0]},{"header":{"parameterUnit":"m.s-1","parameterCategory":2,"la1":30.2991,"la2":30.254,"lo1":-89.0895,"lo2":-89.0444,"dy":0.0017,"dx":0.0017,"nx":28,"ny":28,"refTime":"2024-05-01T09:00:00:Z","depth":"4","parameterNumber":3,"parameterNumberName":"V-component_of_CURRENTS"},"data":[0,0,0,0,0,0,0,0,0,0,0,0,0,0,0,0,0,0,0,0,0,0,0,0,0,0,0,0,0,0,0,0,0,0,0,0,0,0,0,0,0,0,0,0,0,0,0,0,0,0,0,0,0,0,0,0,0,0,-0.0386,-0.0386,0,-0.0369,-0.0368,-0.0368,-0.0368,-0.0369,-0.0369,-0.037,-0.0361,-0.0361,-0.036,0,0,0,0,0,0,0,0,0,0,0,0,0,-0.0373,-0.0373,-0.0386,-0.0386,-0.0386,-0.0369,-0.0368,-0.0368,-0.0368,-0.0369,-0.0369,-0.037,-0.0362,-0.0361,-0.036,0,0,0,0,0,0,0,0,0,0,0,0,0,-0.0367,-0.0374,-0.0386,-0.0386,-0.0386,-0.0369,-0.0368,-0.0368,-0.0368,-0.0369,-0.037,-0.037,-0.0362,-0.0361,-0.036,-0.034,0,0,-0.0357,-0.0357,0,0,0,0,0,0,0,0,-0.0368,-0.0367,-0.0386,-0.0386,-0.0386,-0.0374,-0.0361,-0.036,-0.0368,-0.0372,-0.037,-0.0371,-0.0368,-0.0366,-0.0358,-0.034,-0.0339,-0.0357,-0.0356,-0.0356,-0.0356,0,0,0,0,0,0,0,-0.0368,-0.0368,-0.0377,-0.0386,-0.0386,-0.0371,-0.0372,-0.036,-0.0364,-0.0372,-0.0372,-0.0374,-0.0367,-0.0358,-0.0357,-0.0339,-0.0357,-0.0356,-0.0355,-0.0355,-0.0274,-0.0273,0,0,0,0,0,0,-0.0377,-0.0369,-0.0377,-0.0376,-0.0381,-0.0372,-0.0371,-0.0375,-0.0364,-0.0364,-0.0374,-0.0375,-0.036,-0.0359,-0.0357,-0.0327,-0.0356,-0.0355,-0.0354,-0.0276,-0.0274,-0.0272,0,0,0,0,0,0,-0.0377,-0.0378,-0.0378,-0.0374,-0.0373,-0.0372,-0.0375,-0.0374,-0.0373,-0.0366,-0.0366,-0.0375,-0.036,-0.0359,-0.0331,-0.0327,-0.0355,-0.0354,-0.0278,-0.0275,-0.0273,-0.027,0,0,0,0,0,0,-0.0377,-0.0378,-0.0385,-0.0375,-0.0374,-0.0368,-0.0375,-0.0373,-0.0374,-0.0374,-0.0366,-0.0366,-0.0361,-0.0333,-0.033,-0.0326,-0.0353,-0.028,-0.0277,-0.0274,-0.0272,-0.0268,-0.0264,0,0,0,0,0,-0.0376,-0.0371,-0.0386,-0.0387,-0.0383,-0.0368,-0.0365,-0.0365,-0.0373,-0.0367,-0.035,-0.0366,-0.0313,-0.033,-0.0328,-0.0324,-0.0281,-0.0278,-0.0274,-0.0274,-0.0269,-0.0264,0,0,0,0,0,0,-0.0371,-0.0371,-0.0386,-0.0384,-0.0382,-0.0369,-0.0361,-0.0367,-0.0349,-0.035,-0.0346,-0.0343,-0.0319,-0.0312,-0.0332,-0.0287,-0.03,-0.0296,-0.0301,-0.0296,-0.0292,-0.0295,-0.0352,0,0,0,0,0,-0.0375,-0.0374,-0.0375,-0.0377,-0.0372,-0.0371,-0.0367,-0.0369,-0.0353,-0.0347,-0.0341,-0.0324,-0.03,-0.0292,-0.0273,-0.0249,-0.0236,-0.0242,-0.0238,-0.0235,-0.0232,-0.0184,-0.0176,-0.0261,-0.0261,-0.0261,0,0,-0.0378,-0.0377,-0.0379,-0.0376,-0.0372,-0.0365,-0.0369,-0.0361,-0.0357,-0.0348,-0.0333,-0.0313,-0.0289,-0.0259,-0.0248,-0.0256,-0.0205,-0.0231,-0.0229,-0.0227,-0.018,-0.0172,-0.0165,-0.0259,-0.0259,-0.0259,0,0,-0.0371,-0.0377,-0.0371,-0.0364,-0.0362,-0.036,-0.0361,-0.0351,-0.0346,-0.0326,-0.0314,-0.0283,-0.0261,-0.0233,-0.0218,-0.0177,-0.0186,-0.0179,-0.0165,-0.0119,-0.0112,-0.0106,-0.009,-0.0083,-0.0178,-0.0178,-0.0178,0,-0.0379,-0.0373,-0.0367,-0.0356,-0.0354,-0.036,-0.0354,-0.0345,-0.033,-0.0317,-0.0321,-0.026,-0.0244,-0.0197,-0.018,-0.0172,-0.0157,-0.0192,-0.0115,-0.0109,-0.0102,-0.0088,-0.008,-0.0177,-0.0177,-0.0177,-0.0177,0,-0.036,-0.0363,-0.0352,-0.0349,-0.0343,-0.0335,-0.0329,-0.0323,-0.0323,-0.031,-0.0269,-0.0232,-0.0196,-0.0184,-0.0171,-0.0117,-0.0126,-0.0119,-0.0134,-0.0094,-0.0081,-0.0073,-0.0176,-0.0177,-0.0177,-0.0177,0,0,-0.0364,-0.0348,-0.0347,-0.0349,-0.0339,-0.0333,-0.0323,-0.0309,-0.0298,-0.0275,-0.0246,-0.0193,-0.0175,-0.0154,-0.0133,-0.009,-0.0035,-0.0087,-0.0085,-0.0085,0.0047,0.0003,0.0008,-0.0016,-0.0014,-0.0013,0.0032,0,-0.0359,-0.0348,-0.0337,-0.0334,-0.0328,-0.0325,-0.0314,-0.03,-0.0284,-0.0255,-0.021,-0.0174,-0.0164,-0.0144,-0.0097,-0.0051,-0.001,-0.005,0.002,0.0021,-0.0032,0.0018,-0.0007,0.0038,0.004,0.0042,0.0043,0,-0.0342,-0.034,-0.034,-0.0332,-0.0328,-0.0328,-0.0315,-0.0303,-0.0261,-0.0242,-0.0197,-0.0166,-0.0104,-0.0098,-0.0003,-0.0031,0.0011,0.0046,0.0049,0.0013,-0.0005,-0.0004,0.0058,0.0057,0.0056,0.0055,0.0054,0,-0.0344,-0.0337,-0.0345,-0.0341,-0.0334,-0.0334,-0.033,-0.03,-0.0284,-0.0233,-0.0212,-0.0141,-0.0107,-0.0036,0.0019,0.0018,0.0115,0.0123,0.0123,0.0119,0.0139,0.0132,0.0204,0.0204,0.0204,0.0204,0.0203,0,-0.0333,-0.0337,-0.0352,-0.0352,-0.0357,-0.0344,-0.0336,-0.0319,-0.0283,-0.0258,-0.0207,-0.0176,-0.0086,-0.0029,0.0028,0.0088,0.0122,0.0134,0.0138,0.0138,0.0131,0.0144,0.0137,0.0205,0.0205,0.0205,0.0204,0,-0.0326,-0.0337,-0.0345,-0.0354,-0.0359,-0.0362,-0.0352,-0.0338,-0.0308,-0.0275,-0.0259,-0.0192,-0.013,-0.0057,0.0051,0.0088,0.0156,0.017,0.0142,0.0142,0.0127,0.0119,0.0188,0.0187,0.0186,0.0186,0.0185,0,-0.0321,-0.033,-0.0355,-0.0364,-0.0371,-0.0377,-0.0376,-0.0355,-0.0338,-0.0291,-0.0272,-0.0212,-0.0167,-0.0055,0.002,0.0115,0.0129,0.0166,0.0176,0.0133,0.0131,0.0124,0.0118,0.0184,0.0184,0.0183,0.0183,0,-0.0314,-0.0333,-0.0341,-0.0362,-0.0375,-0.0381,-0.0378,-0.0371,-0.0343,-0.0324,-0.0277,-0.0218,-0.0156,-0.0071,-0.0008,0.0065,0.0147,0.0158,0.0161,0.0171,0.0129,0.0126,0.0121,0.018,0.0181,0.0181,0.0181,0,-0.0313,-0.032,-0.0337,-0.0348,-0.0367,-0.0371,-0.0375,-0.0359,-0.0345,-0.0302,-0.0295,-0.0225,-0.0185,-0.0098,-0.0037,0.0021,0.0047,0.0085,0.0093,0.0096,0.0052,-0.0016,0.0005,0,0,0,0,0,-0.03,-0.03,-0.0317,-0.0327,-0.0344,-0.035,-0.0364,-0.0366,-0.0356,-0.0327,-0.0309,-0.0257,-0.0167,-0.0124,-0.0072,-0.0048,0.0057,0.0016,0.0105,0.0165,0.0169,0.0128,0,0,0,0,0,0,-0.0287,-0.0301,-0.0307,-0.0305,-0.0305,-0.0318,-0.0328,-0.0329,-0.0312,-0.0301,-0.0258,-0.0234,-0.0152,-0.0194,-0.0066,-0.0049,0.0017,0.0056,0.0057,0.0164,0.0167,0.0169,0.0128,0,0,0,0,0]}]]